When you browse on this site, cookies collect data to enhance your experience and personalize the content and advertising you see.
Visit our Privacy Policy to learn more. By continuing to use the site, you agree to this use of cookies and data.
  • In Romania
  • List of Countries
  • For 7 days
  • Water Temperature
  • Satellite Maps
  • Weather Map
  • Weather Widgets
  • user-avatar
    Login

    Hourly Weather Staraya Toropa

    Today, 16 July, Tuesday

    Time Temperature Precipitation Wind Pressure Humidity
    00:00 +10°C° 0 mm 0 mps 741 mmHg 90%
    01:00 +9°C° 0 mm 0 mps 741 mmHg 91%
    02:00 +9°C° 0 mm 0 mps 741 mmHg 92%
    03:00 +9°C° 0 mm 0 mps 741 mmHg 90%
    04:00 +10°C° 0 mm 0 mps 741 mmHg 89%
    05:00 +10°C° 0 mm 0 mps 740 mmHg 87%
    06:00 +13°C° 0 mm 0 mps 740 mmHg 80%
    07:00 +16°C° 0 mm 1 mps 740 mmHg 72%
    08:00 +19°C° 0 mm 1 mps 740 mmHg 62%
    09:00 +20°C° 0.1 mm 1 mps 740 mmHg 59%
    10:00 +21°C° 0.1 mm 1 mps 740 mmHg 56%
    11:00 +21°C° 0.1 mm 2 mps 740 mmHg 52%
    12:00 +21°C° 0.1 mm 2 mps 739 mmHg 53%
    13:00 +21°C° 0.1 mm 2 mps 739 mmHg 53%
    14:00 +21°C° 0.1 mm 3 mps 739 mmHg 54%
    15:00 +20°C° 0.2 mm 3 mps 739 mmHg 58%
    16:00 +20°C° 0.2 mm 3 mps 739 mmHg 61%
    17:00 +20°C° 0.2 mm 3 mps 738 mmHg 65%
    18:00 +18°C° 0 mm 2 mps 738 mmHg 72%
    19:00 +16°C° 0 mm 2 mps 738 mmHg 80%
    20:00 +15°C° 0 mm 2 mps 738 mmHg 87%
    21:00 +14°C° 0 mm 2 mps 738 mmHg 91%
    22:00 +13°C° 0 mm 2 mps 737 mmHg 94%
    23:00 +12°C° 0 mm 2 mps 737 mmHg 97%

    Tomorrow, 17 July, Wednesday

    Time Temperature Precipitation Wind Pressure Humidity
    00:00 +10°C° 0 mm 2 mps 737 mmHg 98%
    01:00 +10°C° 0 mm 2 mps 737 mmHg 98%
    02:00 +11°C° 0 mm 1 mps 737 mmHg 98%
    03:00 +11°C° 0 mm 1 mps 737 mmHg 98%
    04:00 +12°C° 0 mm 1 mps 737 mmHg 98%
    05:00 +12°C° 0 mm 1 mps 736 mmHg 98%
    06:00 +13°C° 0 mm 1 mps 736 mmHg 93%
    07:00 +15°C° 0 mm 1 mps 736 mmHg 89%
    08:00 +16°C° 0 mm 1 mps 736 mmHg 84%
    09:00 +18°C° 0.2 mm 1 mps 736 mmHg 79%
    10:00 +19°C° 0.2 mm 1 mps 736 mmHg 75%
    11:00 +21°C° 0.2 mm 1 mps 736 mmHg 70%
    12:00 +20°C° 0.6 mm 1 mps 736 mmHg 74%
    13:00 +20°C° 0.6 mm 1 mps 736 mmHg 77%
    14:00 +18°C° 0.6 mm 0 mps 735 mmHg 80%
    15:00 +18°C° 0.7 mm 0 mps 735 mmHg 82%
    16:00 +20°C° 0.7 mm 1 mps 735 mmHg 83%
    17:00 +20°C° 0.7 mm 1 mps 735 mmHg 85%
    18:00 +17°C° 0.2 mm 0 mps 735 mmHg 86%
    19:00 +16°C° 0.2 mm 0 mps 735 mmHg 87%
    20:00 +15°C° 0.2 mm 0 mps 735 mmHg 88%
    21:00 +14°C° 0 mm 0 mps 735 mmHg 89%
    22:00 +14°C° 0 mm 0 mps 735 mmHg 89%
    23:00 +13°C° 0 mm 0 mps 735 mmHg 90%

    Day after tomorrow, 18 July, Thursday

    Time Temperature Precipitation Wind Pressure Humidity
    00:00 +13°C° 0.1 mm 0 mps 735 mmHg 91%
    01:00 +13°C° 0.1 mm 0 mps 735 mmHg 92%
    02:00 +13°C° 0.1 mm 0 mps 734 mmHg 93%
    03:00 +13°C° 0.1 mm 0 mps 734 mmHg 93%
    04:00 +13°C° 0.1 mm 0 mps 734 mmHg 94%
    05:00 +13°C° 0.1 mm 0 mps 734 mmHg 94%
    06:00 +14°C° 0.3 mm 0 mps 734 mmHg 92%
    07:00 +15°C° 0.3 mm 0 mps 734 mmHg 91%
    08:00 +16°C° 0.3 mm 0 mps 734 mmHg 89%
    09:00 +17°C° 0.8 mm 0 mps 734 mmHg 85%
    10:00 +18°C° 0.8 mm 0 mps 734 mmHg 81%
    11:00 +21°C° 0.8 mm 1 mps 734 mmHg 77%
    12:00 +21°C° 0.7 mm 1 mps 734 mmHg 78%
    13:00 +20°C° 0.7 mm 1 mps 734 mmHg 78%
    14:00 +20°C° 0.7 mm 1 mps 734 mmHg 79%
    15:00 +20°C° 0.9 mm 1 mps 734 mmHg 81%
    16:00 +20°C° 0.9 mm 1 mps 734 mmHg 84%
    17:00 +19°C° 0.9 mm 1 mps 734 mmHg 86%
    18:00 +18°C° 0.6 mm 1 mps 734 mmHg 89%
    19:00 +16°C° 0.6 mm 1 mps 734 mmHg 92%
    20:00 +15°C° 0.6 mm 1 mps 734 mmHg 95%
    21:00 +14°C° 0.2 mm 1 mps 734 mmHg 96%
    22:00 +14°C° 0.2 mm 1 mps 734 mmHg 96%
    23:00 +13°C° 0.2 mm 1 mps 734 mmHg 97%

    19 July, Friday

    Time Temperature Precipitation Wind Pressure Humidity
    00:00 +13°C° 0.1 mm 1 mps 734 mmHg 97%
    01:00 +13°C° 0.1 mm 1 mps 734 mmHg 98%
    02:00 +13°C° 0.1 mm 1 mps 734 mmHg 98%
    03:00 +13°C° 0 mm 1 mps 735 mmHg 98%
    04:00 +13°C° 0 mm 1 mps 735 mmHg 99%
    05:00 +13°C° 0 mm 1 mps 735 mmHg 99%
    06:00 +13°C° 0 mm 1 mps 735 mmHg 98%
    07:00 +14°C° 0 mm 2 mps 735 mmHg 97%
    08:00 +15°C° 0 mm 2 mps 736 mmHg 97%
    09:00 +15°C° 0 mm 2 mps 736 mmHg 95%
    10:00 +15°C° 0 mm 2 mps 736 mmHg 93%
    11:00 +16°C° 0 mm 3 mps 737 mmHg 92%
    12:00 +17°C° 0 mm 3 mps 737 mmHg 88%
    13:00 +17°C° 0 mm 3 mps 737 mmHg 83%
    14:00 +18°C° 0 mm 3 mps 737 mmHg 79%
    15:00 +18°C° 0.2 mm 3 mps 737 mmHg 80%
    16:00 +18°C° 0.2 mm 3 mps 737 mmHg 80%
    17:00 +18°C° 0.2 mm 3 mps 737 mmHg 81%
    18:00 +17°C° 0.2 mm 3 mps 738 mmHg 86%
    19:00 +17°C° 0.2 mm 3 mps 738 mmHg 90%
    20:00 +16°C° 0.2 mm 3 mps 738 mmHg 94%
    21:00 +14°C° 0.3 mm 3 mps 738 mmHg 95%
    22:00 +14°C° 0.3 mm 3 mps 738 mmHg 96%
    23:00 +14°C° 0.3 mm 3 mps 739 mmHg 97%

    20 July, Saturday

    Time Temperature Precipitation Wind Pressure Humidity
    00:00 +14°C° 0.1 mm 3 mps 739 mmHg 97%
    01:00 +14°C° 0.1 mm 3 mps 739 mmHg 97%
    02:00 +13°C° 0.1 mm 3 mps 739 mmHg 97%
    03:00 +13°C° 0.2 mm 3 mps 739 mmHg 97%
    04:00 +13°C° 0.2 mm 3 mps 739 mmHg 97%
    05:00 +13°C° 0.2 mm 3 mps 740 mmHg 97%
    06:00 +13°C° 0.4 mm 3 mps 740 mmHg 97%
    07:00 +13°C° 0.4 mm 3 mps 740 mmHg 97%
    08:00 +13°C° 0.4 mm 3 mps 740 mmHg 97%
    09:00 +14°C° 0.1 mm 3 mps 741 mmHg 96%
    10:00 +14°C° 0.1 mm 3 mps 741 mmHg 94%
    11:00 +16°C° 0.1 mm 3 mps 741 mmHg 93%
    12:00 +17°C° 0.1 mm 3 mps 742 mmHg 87%
    13:00 +18°C° 0.1 mm 3 mps 742 mmHg 82%
    14:00 +19°C° 0.1 mm 3 mps 742 mmHg 76%
    15:00 +19°C° 0.4 mm 3 mps 742 mmHg 80%
    16:00 +19°C° 0.4 mm 3 mps 742 mmHg 83%
    17:00 +19°C° 0.4 mm 3 mps 743 mmHg 87%
    18:00 +18°C° 0.2 mm 3 mps 743 mmHg 90%
    19:00 +17°C° 0.2 mm 2 mps 743 mmHg 94%
    20:00 +16°C° 0.2 mm 2 mps 743 mmHg 97%
    21:00 +16°C° 0 mm 2 mps 743 mmHg 97%
    22:00 +15°C° 0 mm 2 mps 744 mmHg 98%
    23:00 +14°C° 0 mm 2 mps 744 mmHg 98%

    21 July, Sunday

    Time Temperature Precipitation Wind Pressure Humidity
    00:00 +14°C° 0 mm 2 mps 744 mmHg 98%
    01:00 +14°C° 0 mm 2 mps 744 mmHg 98%
    02:00 +13°C° 0 mm 2 mps 744 mmHg 98%
    03:00 +13°C° 0 mm 2 mps 744 mmHg 98%
    04:00 +13°C° 0 mm 2 mps 745 mmHg 99%
    05:00 +13°C° 0 mm 2 mps 745 mmHg 99%
    06:00 +15°C° 0 mm 2 mps 745 mmHg 95%
    07:00 +16°C° 0 mm 2 mps 745 mmHg 92%
    08:00 +18°C° 0 mm 2 mps 745 mmHg 89%
    09:00 +19°C° 0.3 mm 2 mps 745 mmHg 84%
    10:00 +20°C° 0.3 mm 2 mps 746 mmHg 79%
    11:00 +21°C° 0.3 mm 2 mps 746 mmHg 73%
    12:00 +23°C° 0.5 mm 2 mps 746 mmHg 71%
    13:00 +24°C° 0.5 mm 2 mps 746 mmHg 69%
    14:00 +24°C° 0.5 mm 3 mps 746 mmHg 66%
    15:00 +24°C° 0.6 mm 2 mps 746 mmHg 71%
    16:00 +23°C° 0.6 mm 2 mps 746 mmHg 76%
    17:00 +21°C° 0.6 mm 2 mps 746 mmHg 81%
    18:00 +20°C° 0.1 mm 2 mps 746 mmHg 86%
    19:00 +19°C° 0.1 mm 2 mps 746 mmHg 90%
    20:00 +17°C° 0.1 mm 2 mps 746 mmHg 95%
    21:00 +18°C° 0 mm 1 mps 746 mmHg 95%
    22:00 +16°C° 0 mm 1 mps 746 mmHg 96%
    23:00 +15°C° 0 mm 1 mps 746 mmHg 96%
    Show more